Regional Weather Roundup
Issued by NWS

Home | Current Version | Previous Version | Text Only | Print | Product List | Glossary On
Versions: 1 2 3 4 5 6 7 8 9 10 11 12 13 14 15 16 17 18 19 20 21 22 23 24 25 26 27 28 29 30 31 32 33 34 35 36 37 38 39 40 41 42 43 44 45 46 47 48 49 50
000
ASUS43 KMKX 262300
RWRWI

WISCONSIN REGIONAL WEATHER ROUNDUP
NATIONAL WEATHER SERVICE MILWAUKEE/SULLIVAN WI
600 PM CDT THU MAR 26 2015

NOTE: "FAIR" INDICATES FEW OR NO CLOUDS BELOW 12,000 FEET WITH NO
SIGNIFICANT WEATHER AND/OR OBSTRUCTIONS TO VISIBILITY.

WIZ001-002-006>008-014>016-023>028-270000-
NORTHWEST WISCONSIN

CITY           SKY/WX    TMP DP  RH WIND       PRES   REMARKS
SUPERIOR ARPT  SUNNY     31   4  31 N14       30.14R WCI  21
ASHLAND        MOSUNNY   28   8  43 N10       30.13R WCI  19
HAYWARD        SUNNY     28   4  35 N13G22    30.09R WCI  17
SIREN          SUNNY     32   0  25 N13G21    30.10R WCI  23
CUMBERLAND     MOSUNNY   32   5  32 N7G20     30.06R WCI  26
RICE LAKE      CLOUDY    32  11  41 N10       30.08R WCI  24
CHETEK         CLOUDY    31  14  49 N10G16    30.07S WCI  22
LADYSMITH      PTSUNNY   30  10  43 N8        30.07S WCI  23
EAU CLAIRE     NOT AVBL
MENOMONIE      CLOUDY    34  13  42 NW15      30.07S WCI  24
NEW RICHMOND   MOSUNNY   32  11  41 N13       30.09S WCI  22
OSCEOLA        SUNNY     35   7  31 NW14      30.13R WCI  26
$$

WIZ003>005-009-010-017-018-270000-
NORTH CENTRAL WISCONSIN

CITY           SKY/WX    TMP DP  RH WIND       PRES   REMARKS
MANITOWISH WTR CLOUDY    20   8  58 N9        30.05R WCI  10
ARBOR VITAE    CLOUDY    22  11  64 NW14G23   30.04R WCI   9
WOODRUFF       CLOUDY    22  11  64 NW14G23   30.04R WCI   9
RHINELANDER    CLOUDY    21   9  59 NW14G21   30.03R WCI   8
EAGLE RIVER    FLURRIES  20   9  61 NW14G21   30.02R WCI   7
LAND O LAKES   CLOUDY    19  10  67 N15       30.03R WCI   5
PHILLIPS       PTSUNNY   24  10  55 N14       30.04R WCI  12
TOMAHAWK       CLOUDY    24  11  57 NW12G17   30.04R WCI  13
MEDFORD        CLOUDY    26  12  56 N13G22    30.03R WCI  15
MERRILL        CLOUDY    26  12  55 N8G21     30.03R WCI  17
$$

WIZ029-030-035-036-043>047-270000-
CENTRAL WISCONSIN

CITY           SKY/WX    TMP DP  RH WIND       PRES   REMARKS
WAUSAU         CLOUDY    27  12  53 N14G23    30.02R WCI  16
MOSINEE        CLOUDY    27  16  63 NW15      30.04R WCI  15
MARSHFIELD     CLOUDY    29  15  56 NW20      30.04R WCI  16
STEVENS POINT  CLOUDY    28  13  53 NW12G17   30.03R WCI  17
WAUPACA        CLOUDY    33  14  45 NW13      30.03R WCI  24
WAUTOMA        NOT AVBL
WISC RAPIDS    CLOUDY    30  13  49 N14G22    30.06R WCI  19
CAMP DOUGLAS   NOT AVBL
$$

WIZ011>013-019>022-031-037>040-048>050-270000-
NORTHEAST WISCONSIN

CITY           SKY/WX    TMP DP  RH WIND       PRES   REMARKS
ANTIGO         CLOUDY    23  12  62 N15       30.01R WCI  10
SHAWANO        CLOUDY    32  15  49 N10       30.02R WCI  24
OCONTO         CLOUDY    29  15  54 N12       30.02R WCI  20
STURGEON BAY   CLOUDY    27  14  59 N15       30.04R WCI  15
GREEN BAY      CLOUDY    32  17  54 N12       30.02R WCI  23
MANITOWOC      NOT AVBL
APPLETON       CLOUDY    30  16  55 N14       30.02R WCI  20
CLINTONVILLE   CLOUDY    32  14  47 N10G20    30.02R WCI  24
OSHKOSH        CLOUDY    32  16  51 N10       30.02R WCI  24
$$

WIZ032>034-041-042-053>061-270000-
SOUTHWEST WISCONSIN

CITY           SKY/WX    TMP DP  RH WIND       PRES   REMARKS
LA CROSSE      CLOUDY    36  18  48 NW12      30.07R WCI  28
SPARTA         CLOUDY    34  16  48 N9G17     30.06S WCI  26
VIROQUA        CLOUDY    32  20  59 NW10      30.03S WCI  24
BOSCOBEL       CLOUDY    36  20  52 NW8       30.06S WCI  30
PRAIRIE DU CHI CLOUDY    35  18  50 NW8       30.07R WCI  28
PLATTEVILLE    CLOUDY    34  23  65 W12G17    30.04R WCI  25
$$

WIZ056-057-062-063-064-067-068-270000-
SOUTH CENTRAL WISCONSIN

CITY           SKY/WX    TMP DP  RH WIND       PRES   REMARKS
REEDSBURG      CLOUDY    34  19  53 NW9       30.03R WCI  26
BARABOO/DELLS  CLOUDY    33  17  50 N10       30.02R WCI  25
LONE ROCK      NOT AVBL
MINERAL POINT  CLOUDY    34  21  60 NW12G17   30.02S WCI  25
MADISON        CLOUDY    35  18  49 N14       30.01R WCI  26
MIDDLETON      CLOUDY    37  20  50 NW10G17   30.02R WCI  29
WATERTOWN      CLOUDY    33  20  57 N12G17    30.00R WCI  25
MONROE         CLOUDY    34  23  64 NW9G17    30.00S WCI  26
JANESVILLE     CLOUDY    37  21  52 NW12G17   30.01R WCI  30
$$

WIZ051-052-058>065-066-070>072-270000-
SOUTHEAST WISCONSIN

CITY           SKY/WX    TMP DP  RH WIND       PRES   REMARKS
MILWAUKEE      CLOUDY    35  17  47 NW12      30.01R WCI  27
WAUKESHA       CLOUDY    32  19  59 NW14G20   30.01R WCI  22
MILWAUKEE/TIMM CLOUDY    34  18  51 NW14G20   30.01R WCI  24
RACINE         CLOUDY    35  20  54 N8        30.02R WCI  29
BURLINGTON     CLOUDY    34  19  55 NW10      30.00R WCI  26
KENOSHA        CLOUDY    36  23  59 NW7       30.00R WCI  30
FOND DU LAC    CLOUDY    32  16  51 NW12      30.02R WCI  23
SHEBOYGAN      CLOUDY    32  19  58 NW12      30.01R WCI  23
WEST BEND      CLOUDY    32  19  59 NW12      30.00R WCI  23
JUNEAU         CLOUDY    31  17  55 NW14G23   30.02R WCI  21
$$

LSZ147-162-270000-
LAKE SUPERIOR

STATION/POSITION TIME  TEMP    WIND        PRES    WAVE
                       AIR SEA DIR/SP/G            HT/PER
                 (UTC) (F)     (DEG/KT/KT) (MB)    (FT/S)
DEVILS ISLAND    2200   25     350/ 15/ 17 1021.4R
PORT WING        2200   27      30/  8/ 10 1020.7
SAXON HARBOR     2240   25     350/  6/ 10 1020.7R
$$

LMZ867-665-643>646-270000-
LAKE MICHIGAN

STATION/POSITION TIME  TEMP    WIND        PRES    WAVE
                       AIR SEA DIR/SP/G            HT/PER
                 (UTC) (F)     (DEG/KT/KT) (MB)    (FT/S)
NORTHPORT PIER   2206   25     350/ 20/ 24 1016.3R
SISTER BAY       2232   26     360/ 23/ 26   N/A
KEWAUNEE LAKESHO 2200   31     340/  6/ 14 1014.6R
SHEBOYGAN LAKESH 2200   33     320/ 11/ 13 1016.4R
PORT WASHINGTON  2240   33     320/  8/ 12 1016.9R
MILWAUKEE LAKESH 2200   35     310/ 13/ 18   N/A
KENOSHA   LAKESH 2200   36     320/ 15/ 17 1015.9R
$$

TC  - TEMPERATURE IN CELSIUS
VSB - VISIBILITY IN STATUTE MILES
WCI - WIND CHILL INDEX
HX  - HEAT INDEX



USA.gov is the U.S. government's official web portal to all federal, state and local government web resources and services.